SCP
0 0 0 0 0 0 0 0 0 0 0 0 0 0 0 0 0 0 0 -0 0 0 0 0 0 0 0 0 0 0 0 0 0 0 0 0 0 0 0 0 0 0 0 0
0 0 0 0 0 0 0 0 0 0 0 0 0 0 0 0 0 0 0 0 0 0 0 0 0 0 0 0 0 0 0 0 0 0 0 0 0 0 0 0 0 0 0 0
0 0 0 0 0 0 0 0 0 0 0 0 0 0 0 0 0 0 0 0 0 0 0 0 0 0 0 0 0 0 0 0 0 0 0 0 0 0 0 0 0 0 0 0
0 0 0 0 0 0 0 0 0 0 0 0 0 0 0 0 0 0 0 0 0 0 0 0 0 0 0 0 0 0 0 0 0 0 0 0 0 0 0 0 0 0 0 0
0 0 0 0 0 0 0 0 0 0 0 0 0 0 0 0 0 0 0 0 0 0 0 0 0 0 0 0 0 0 0 0 0 0 0 0 0 0 0 0 0 0 0 0
0 0 0 0 0 0 0 0 0 0 0 0 0 0 0 0 0 0 0 0 0 0 0 0 0 0 0 0 0 -0 0 0 0 0 0 0 0 0 0 0 0 0 0 0
0 0 0 0 0 0 0 0 0 0 0 0 0 0 0 0 0 0 0 0 0 0 0 0 0 0 0 0 0 0 0 0 0 0 0 0 0 0 0 0 0 0 0 0
0 0 0 0 0 0 0 0 0 0 0 0 0 0 0 0 0 0 0 0 0 0 0 0 0 0 0 0 0 0 0 0 0 0 0 0 0 0 0 0 0 0 0 0
-0 -0 0 0 0 0 0 0 0 0 0 0 0 0 0 0 0 0 0 0 0 0 0 0 0 0 0 0 0 0 0 0 0 0 0 0 0 0 0 0 0 0 0 0
-0 -0 -0 0 0 0 0 0 0 0 0 0 0 0 0 -0 -0 0 0 0 0 0 0 0 0 0 0 0 0 0 0 0 0 0 0 0 0 0 0 0 0 0 0 0
0 -0 -0 -0 0 0 0 0 0 0 0 0 0 0 0 0 0 0 0 0 0 0 0 0 0 0 0 0 0 0 0 0 0 0 0 0 0 0 0 0 0 0 0 0
0 -0 0 0 0 0 0 0 0 0 0 0 0 0 0 0 0 0 0 0 0 0 0 0 0 0 0 0 0 0 0 0 0 0 0 0 0 0 0 0 0 0 0 0
0 0 0 0 0 0 0 0 0 0 0 0 0 0 0 0 0 0 0 0 0 0 0 0 0 0 0 0 0 0 0 0 0 0 0 0 0 0 0 0 0 0 0 0
0 0 0 0 0 0 0 0 0 0 0 0 0 0 -0 0 0 0 0 0 0 0 0 0 0 0 0 0 0 0 0 0 0 0 0 0 0 0 0 0 0 0 0 0
0 0 0 0 0 0 0 -0 0 -0 0 0 0 0 0 0 0 0 0 0 0 0 0 0 0 0 0 0 0 0 0 0 0 0 0 0 0 0 0 0 0 0 0 0
0 0 0 0 0 0 0 -0 0 0 -0 -0 -0 0 0 -0 -0 0 0 0 0 0 0 0 0 0 0 0 0 0 0 0 0 0 0 0 0 0 0 0 0 0 0 0
-0 0 0 0 0 0 0 0 -0 -0 -0 -0 -0 0 0 0 0 0 0 0 0 0 0 0 0 0 0 0 0 0 0 0 0 0 0 0 0 0 0 0 0 0 0 -0
-0 0 0 0 0 0 0 0 0 0 -0 -0 0 0 0 0 0 0 0 0 0 0 0 0 0 0 0 0 0 0 0 0 0 0 0 0 0 0 0 0 0 0 0 0
0 0 0 0 0 0 0 0 0 0 0 0 0 0 0 0 0 0 0 0 0 0 0 0 0 0 0 0 0 0 0 0 0 0 0 0 0 0 0 0 0 0 0 0
0 0 0 0 0 0 0 0 0 0 0 0 0 0 0 0 0 0 0 0 0 0 0 0 0 0 0 0 0 0 0 0 0 0 0 0 0 0 0 0 0 0 0 0
0 0 0 0 0 0 0 0 0 0 0 0 0 0 0 0 0 0 0 0 0 0 0 0 0 0 0 0 0 0 0 0 0 0 0 0 0 0 0 0 0 0 0 0
0 0 0 0 0 0 0 0 0 0 0 0 0 0 0 0 0 0 0 0 0 0 0 0 0 0 0 0 0 0 0 0 0 0 0 0 0 0 0 0 0 0 0 0
0 0 0 0 0 0 0 0 0 0 0 0 0 0 0 0 0 0 0 0 0 0 0 0 0 0 0 0 0 0 0 0 0 0 0 0 0 0 0 0 0 0 0 0
0 0 0 0 0 0 0 0 0 0 0 0 0 0 0 0 0 0 0 0 0 0 0 0 0 0 0 0 0 0 0 0 0 0 0 0 0 0 0 0 0 0 0 0
0 0 0 0 0 0 0 0 0 0 0 0 0 0 0 0 0 0 0 0 0 0 0 0 0 0 0 0 0 0 0 0 0 0 0 0 0 0 0 0 0 0 0 0
0 0 0 0 0 0 0 0 0 0 0 0 0 0 0 0 0 0 0 0 0 0 0 0 0 0 0 0 0 0 0 0 0 0 0 0 0 0 0 0 0 0 0 0
0 0 0 0 0 0 0 0 0 0 0 0 0 0 0 0 0 0 0 0 0 0 0 0 0 0 0 0 0 0 0 0 0 0 0 0 0 0 0 0 0 0 0 0
Wind_Speed_500mb
8 4 5 5 9 17 2 4 7 10 11 4 7 8 12 16 24 20 7 13 42 54 62 71 74 71 66 63 59 57 50 52 44 36 36 37 36 34 30 30 26 26 32 32
11 15 17 10 18 10 8 6 12 20 9 4 7 22 32 35 35 32 26 11 8 23 38 42 51 59 64 61 58 58 55 45 47 41 38 36 36 35 32 32 31 27 25 30
5 5 13 10 15 11 3 6 4 4 5 7 16 25 28 28 26 26 25 23 16 10 11 22 38 40 37 38 42 49 55 58 51 51 40 38 37 41 37 35 32 32 31 32
7 2 4 6 5 13 13 7 10 12 9 17 21 27 29 29 26 23 22 25 24 23 23 18 14 14 25 31 23 24 29 33 35 48 47 35 37 28 42 38 31 28 29 30
8 2 2 5 5 1 5 5 7 11 16 20 24 22 23 22 23 22 21 21 22 17 12 13 16 17 12 11 12 25 33 29 24 29 32 44 26 19 16 14 15 18 22 27
5 7 8 10 6 3 7 6 4 11 19 23 4 7 3 6 12 14 16 16 14 10 7 7 7 13 12 13 12 9 22 23 25 24 31 38 44 49 46 38 34 29 32 36
4 3 10 7 8 5 8 11 9 10 14 13 6 8 18 4 5 7 5 7 10 9 5 0 5 6 7 6 10 9 13 22 23 29 28 40 26 24 32 49 45 38 44 50
4 5 8 6 3 4 8 4 11 11 8 12 26 29 19 10 6 6 6 3 5 4 6 9 9 5 12 15 15 16 17 21 23 26 29 28 30 25 19 22 24 27 25 23
12 10 5 6 2 2 4 6 14 14 11 18 26 27 21 15 13 12 11 9 8 6 5 4 10 8 4 12 16 16 14 12 11 8 5 4 7 3 4 4 6 8 8 9
5 6 8 3 5 5 7 8 13 14 10 13 9 16 17 17 15 17 18 16 13 10 12 11 8 7 8 10 10 9 9 11 11 15 8 12 12 12 10 9 8 7 7 4
6 13 12 20 18 12 13 12 16 22 14 12 6 8 7 10 13 16 19 20 20 15 10 10 11 9 10 12 12 11 12 11 12 15 11 11 11 12 13 14 10 7 10 6
12 22 16 7 16 24 17 16 24 25 24 19 16 12 8 12 14 16 17 16 16 16 16 12 12 15 14 15 15 12 13 13 12 10 8 7 6 6 8 13 14 15 11 9
4 12 22 8 11 18 29 15 21 21 23 23 19 12 10 11 15 18 18 16 13 13 16 17 16 15 18 20 20 18 15 16 14 10 11 11 11 11 6 7 5 3 4 6
20 14 21 19 10 20 17 27 21 25 21 18 15 15 12 15 16 15 12 13 12 12 12 13 16 18 17 17 14 11 10 10 11 12 12 10 10 11 11 10 7 7 7 8
25 19 14 14 15 21 26 19 22 28 26 24 20 14 11 13 15 15 13 13 13 13 12 12 13 16 17 14 8 5 7 9 8 7 9 10 11 11 11 12 15 13 16 16
34 25 22 13 19 27 25 25 29 27 27 22 18 20 17 14 13 13 15 16 13 10 10 10 14 17 19 9 2 4 6 9 7 9 7 6 9 5 8 5 2 4 7 11
42 36 25 21 19 30 30 23 30 28 27 24 21 26 24 16 12 11 13 17 16 14 12 11 12 18 25 18 8 11 13 15 13 13 7 10 9 7 5 4 5 5 10 13
44 32 29 23 21 29 32 30 26 26 28 29 28 28 26 22 12 7 7 13 20 18 15 13 16 18 22 28 26 21 19 23 22 19 15 13 14 14 13 13 13 12 9 9
37 40 30 22 16 28 35 34 29 19 20 31 33 32 24 18 16 13 14 15 17 18 12 15 19 24 28 29 30 29 27 27 30 26 25 22 19 20 15 19 11 17 14 10
32 34 31 27 28 25 29 30 26 25 28 34 31 27 23 20 19 18 19 17 14 14 13 14 18 21 24 23 30 29 29 30 28 26 25 24 20 20 19 12 13 14 12 17
31 30 29 28 29 30 29 28 32 34 30 25 22 21 20 18 15 12 9 8 9 12 15 16 15 16 17 20 27 34 30 32 34 33 30 28 25 20 20 21 13 16 16 16
27 26 24 25 30 30 33 33 32 30 29 30 27 22 19 17 15 13 12 13 16 19 20 19 17 17 17 20 21 23 31 35 38 40 36 36 37 37 35 24 23 20 25 21
22 21 24 25 27 30 38 37 32 26 26 35 32 28 25 20 17 16 20 23 23 22 20 22 16 11 9 11 15 18 22 23 26 36 31 26 25 27 29 27 28 26 24 26
23 24 27 30 33 42 43 40 36 34 33 33 27 19 10 16 18 16 14 19 23 21 19 14 12 11 10 12 9 8 5 7 9 12 16 19 29 33 26 26 28 30 33 35
25 26 33 40 46 45 42 42 44 43 42 37 17 17 8 5 5 10 6 6 5 5 6 6 7 9 9 11 12 10 9 10 12 14 14 15 15 17 24 27 28 27 26 27
33 34 38 46 49 52 52 52 52 53 48 26 16 13 14 8 11 6 9 6 3 2 9 10 14 20 22 18 15 14 15 14 14 14 15 17 18 20 22 24 27 30 32 35
30 28 30 40 51 55 56 54 57 56 46 25 21 18 13 10 9 8 8 9 10 9 6 7 6 5 11 13 10 6 11 16 19 19 21 23 26 27 26 24 24 26 33 40
Wind_Direction_500mb
117 135 107 63 12 37 4 336 123 160 111 334 317 28 24 50 49 73 135 232 213 213 216 217 220 223 226 230 229 222 222 228 227 237 238 234 233 240 234 232 244 257 257 248
40 102 43 21 34 82 40 66 83 120 100 222 68 58 50 43 49 58 68 81 175 204 217 219 220 223 229 232 232 236 230 224 221 236 234 246 242 238 233 237 243 251 260 258
336 73 70 349 359 337 40 49 32 341 103 165 87 66 51 55 62 68 83 87 87 118 176 200 220 227 225 229 228 228 227 227 237 231 253 244 252 244 240 239 244 247 254 262
153 77 169 235 338 271 104 90 60 80 121 128 116 101 82 71 77 84 86 97 95 103 114 134 180 217 239 236 223 222 218 222 238 242 238 234 254 242 235 237 251 259 271 271
117 80 277 3 283 355 39 293 117 139 139 132 125 94 63 74 75 86 88 98 111 117 110 106 128 126 114 102 230 246 247 235 235 219 229 225 220 226 227 234 264 272 282 291
91 114 190 223 172 12 142 314 200 154 144 150 144 49 280 66 91 82 72 79 79 90 61 88 132 123 128 101 86 352 204 202 240 232 234 236 238 257 253 260 271 273 277 283
85 126 288 267 337 76 100 242 166 171 150 158 139 149 159 161 112 103 94 95 78 53 37 331 104 131 138 133 81 146 161 179 223 250 240 239 255 245 255 262 263 271 273 280
71 86 274 359 60 158 217 211 168 159 158 141 138 128 144 157 130 131 149 146 132 95 79 115 117 119 154 169 169 181 180 191 216 225 238 247 249 253 248 249 249 250 249 255
170 216 274 334 273 228 154 156 164 174 166 144 133 149 157 155 139 135 139 156 156 134 120 118 111 87 107 166 166 162 168 187 183 197 195 236 254 235 174 162 180 197 210 220
68 261 242 232 214 196 186 190 195 208 198 162 152 155 155 152 151 153 153 157 169 164 154 157 142 116 94 119 125 145 147 144 132 146 98 130 124 121 126 136 142 147 141 128
269 273 278 255 228 210 227 251 223 205 193 171 156 156 162 160 153 160 164 162 159 163 174 160 159 151 143 133 132 139 139 145 154 161 163 189 192 196 166 154 142 145 138 129
217 216 185 208 222 212 207 232 211 189 180 172 159 159 175 170 160 158 150 147 147 145 151 163 152 149 142 133 116 113 119 119 124 129 145 168 174 184 171 167 178 176 168 152
213 218 191 162 165 180 205 202 194 199 185 174 164 155 150 168 163 155 149 145 137 138 138 142 143 136 134 132 125 117 117 113 112 133 144 155 155 143 141 117 104 86 87 100
206 191 194 218 199 187 199 212 214 196 192 176 170 158 154 163 169 167 160 152 148 150 153 153 149 146 143 136 123 122 130 127 126 119 108 119 151 157 161 166 173 190 166 108
189 173 172 209 191 184 195 196 192 179 173 177 172 170 160 159 164 179 184 172 171 173 177 179 177 165 156 146 144 128 137 132 130 128 114 111 112 112 103 107 106 104 106 115
185 175 165 170 173 177 182 192 176 175 178 180 182 179 164 153 168 188 201 198 186 174 182 186 195 190 175 158 58 264 234 195 191 172 169 171 180 173 127 147 153 145 154 139
183 195 195 203 195 175 181 190 186 181 185 191 191 186 192 192 197 200 200 205 197 193 192 191 197 210 210 219 275 302 262 245 233 222 255 217 204 195 210 332 214 143 150 140
205 208 210 218 212 199 188 179 176 188 200 204 190 195 202 219 218 218 215 208 208 214 223 220 220 227 234 240 246 272 261 239 236 241 238 224 236 246 247 258 256 202 180 208
202 210 217 217 208 201 198 194 194 199 188 198 203 209 213 216 211 207 217 222 228 242 253 252 253 252 257 255 254 266 256 241 230 235 228 229 235 234 237 216 215 197 223 248
200 202 207 207 209 206 202 203 215 218 208 203 205 207 210 215 219 229 241 255 258 267 256 245 252 259 257 247 252 258 252 244 240 238 234 236 247 255 243 232 237 228 226 241
199 203 209 220 217 208 208 220 213 204 199 195 203 212 220 224 210 205 222 245 249 240 239 253 272 272 258 260 257 248 251 245 240 241 242 243 242 248 252 234 241 238 250 254
207 211 210 209 203 197 196 199 190 188 189 192 198 203 204 201 205 221 244 260 244 255 258 255 260 261 267 276 276 258 251 252 248 246 246 241 239 253 249 227 256 263 263 258
208 202 193 192 190 186 182 183 188 195 200 197 192 192 196 210 231 250 267 261 254 254 265 252 245 241 255 284 287 276 259 254 249 239 239 240 248 246 254 258 249 238 232 263
194 196 197 196 191 186 187 192 199 203 201 193 190 183 227 267 257 258 267 262 253 260 253 237 239 245 262 292 298 306 286 225 224 237 245 259 249 242 240 252 256 264 267 271
195 198 203 206 203 203 203 201 200 195 187 176 195 245 221 200 227 165 177 154 182 211 207 235 290 309 302 291 283 266 252 252 242 243 249 267 267 253 250 256 262 264 258 259
209 212 215 217 218 215 213 209 203 189 182 190 241 209 193 184 151 138 168 161 179 277 260 249 265 287 287 283 270 262 264 264 262 262 270 268 265 261 259 261 268 267 264 261
201 203 207 218 222 222 222 217 203 196 197 225 206 189 203 195 199 209 211 231 229 212 230 168 136 86 54 54 39 339 280 268 267 267 271 270 268 267 267 270 270 272 271 263
Wind_Speed_850mb
8 4 5 5 9 17 2 4 7 10 11 4 7 8 12 16 24 20 7 13 42 54 62 71 74 71 66 63 59 57 50 52 44 36 36 37 36 34 30 30 26 26 32 32
11 15 17 10 18 10 8 6 12 20 9 4 7 22 32 35 35 32 26 11 8 23 38 42 51 59 64 61 58 58 55 45 47 41 38 36 36 35 32 32 31 27 25 30
5 5 13 10 15 11 3 6 4 4 5 7 16 25 28 28 26 26 25 23 16 10 11 22 38 40 37 38 42 49 55 58 51 51 40 38 37 41 37 35 32 32 31 32
7 2 4 6 5 13 13 7 10 12 9 17 21 27 29 29 26 23 22 25 24 23 23 18 14 14 25 31 23 24 29 33 35 48 47 35 37 28 42 38 31 28 29 30
8 2 2 5 5 1 5 5 7 11 16 20 24 22 23 22 23 22 21 21 22 17 12 13 16 17 12 11 12 25 33 29 24 29 32 44 26 19 16 14 15 18 22 27
5 7 8 10 6 3 7 6 4 11 19 23 4 7 3 6 12 14 16 16 14 10 7 7 7 13 12 13 12 9 22 23 25 24 31 38 44 49 46 38 34 29 32 36
4 3 10 7 8 5 8 11 9 10 14 13 6 8 18 4 5 7 5 7 10 9 5 0 5 6 7 6 10 9 13 22 23 29 28 40 26 24 32 49 45 38 44 50
4 5 8 6 3 4 8 4 11 11 8 12 26 29 19 10 6 6 6 3 5 4 6 9 9 5 12 15 15 16 17 21 23 26 29 28 30 25 19 22 24 27 25 23
12 10 5 6 2 2 4 6 14 14 11 18 26 27 21 15 13 12 11 9 8 6 5 4 10 8 4 12 16 16 14 12 11 8 5 4 7 3 4 4 6 8 8 9
5 6 8 3 5 5 7 8 13 14 10 13 9 16 17 17 15 17 18 16 13 10 12 11 8 7 8 10 10 9 9 11 11 15 8 12 12 12 10 9 8 7 7 4
6 13 12 20 18 12 13 12 16 22 14 12 6 8 7 10 13 16 19 20 20 15 10 10 11 9 10 12 12 11 12 11 12 15 11 11 11 12 13 14 10 7 10 6
12 22 16 7 16 24 17 16 24 25 24 19 16 12 8 12 14 16 17 16 16 16 16 12 12 15 14 15 15 12 13 13 12 10 8 7 6 6 8 13 14 15 11 9
4 12 22 8 11 18 29 15 21 21 23 23 19 12 10 11 15 18 18 16 13 13 16 17 16 15 18 20 20 18 15 16 14 10 11 11 11 11 6 7 5 3 4 6
20 14 21 19 10 20 17 27 21 25 21 18 15 15 12 15 16 15 12 13 12 12 12 13 16 18 17 17 14 11 10 10 11 12 12 10 10 11 11 10 7 7 7 8
25 19 14 14 15 21 26 19 22 28 26 24 20 14 11 13 15 15 13 13 13 13 12 12 13 16 17 14 8 5 7 9 8 7 9 10 11 11 11 12 15 13 16 16
34 25 22 13 19 27 25 25 29 27 27 22 18 20 17 14 13 13 15 16 13 10 10 10 14 17 19 9 2 4 6 9 7 9 7 6 9 5 8 5 2 4 7 11
42 36 25 21 19 30 30 23 30 28 27 24 21 26 24 16 12 11 13 17 16 14 12 11 12 18 25 18 8 11 13 15 13 13 7 10 9 7 5 4 5 5 10 13
44 32 29 23 21 29 32 30 26 26 28 29 28 28 26 22 12 7 7 13 20 18 15 13 16 18 22 28 26 21 19 23 22 19 15 13 14 14 13 13 13 12 9 9
37 40 30 22 16 28 35 34 29 19 20 31 33 32 24 18 16 13 14 15 17 18 12 15 19 24 28 29 30 29 27 27 30 26 25 22 19 20 15 19 11 17 14 10
32 34 31 27 28 25 29 30 26 25 28 34 31 27 23 20 19 18 19 17 14 14 13 14 18 21 24 23 30 29 29 30 28 26 25 24 20 20 19 12 13 14 12 17
31 30 29 28 29 30 29 28 32 34 30 25 22 21 20 18 15 12 9 8 9 12 15 16 15 16 17 20 27 34 30 32 34 33 30 28 25 20 20 21 13 16 16 16
27 26 24 25 30 30 33 33 32 30 29 30 27 22 19 17 15 13 12 13 16 19 20 19 17 17 17 20 21 23 31 35 38 40 36 36 37 37 35 24 23 20 25 21
22 21 24 25 27 30 38 37 32 26 26 35 32 28 25 20 17 16 20 23 23 22 20 22 16 11 9 11 15 18 22 23 26 36 31 26 25 27 29 27 28 26 24 26
23 24 27 30 33 42 43 40 36 34 33 33 27 19 10 16 18 16 14 19 23 21 19 14 12 11 10 12 9 8 5 7 9 12 16 19 29 33 26 26 28 30 33 35
25 26 33 40 46 45 42 42 44 43 42 37 17 17 8 5 5 10 6 6 5 5 6 6 7 9 9 11 12 10 9 10 12 14 14 15 15 17 24 27 28 27 26 27
33 34 38 46 49 52 52 52 52 53 48 26 16 13 14 8 11 6 9 6 3 2 9 10 14 20 22 18 15 14 15 14 14 14 15 17 18 20 22 24 27 30 32 35
30 28 30 40 51 55 56 54 57 56 46 25 21 18 13 10 9 8 8 9 10 9 6 7 6 5 11 13 10 6 11 16 19 19 21 23 26 27 26 24 24 26 33 40
Wind_Direction_850mb
117 135 107 63 12 37 4 336 123 160 111 334 317 28 24 50 49 73 135 232 213 213 216 217 220 223 226 230 229 222 222 228 227 237 238 234 233 240 234 232 244 257 257 248
40 102 43 21 34 82 40 66 83 120 100 222 68 58 50 43 49 58 68 81 175 204 217 219 220 223 229 232 232 236 230 224 221 236 234 246 242 238 233 237 243 251 260 258
336 73 70 349 359 337 40 49 32 341 103 165 87 66 51 55 62 68 83 87 87 118 176 200 220 227 225 229 228 228 227 227 237 231 253 244 252 244 240 239 244 247 254 262
153 77 169 235 338 271 104 90 60 80 121 128 116 101 82 71 77 84 86 97 95 103 114 134 180 217 239 236 223 222 218 222 238 242 238 234 254 242 235 237 251 259 271 271
117 80 277 3 283 355 39 293 117 139 139 132 125 94 63 74 75 86 88 98 111 117 110 106 128 126 114 102 230 246 247 235 235 219 229 225 220 226 227 234 264 272 282 291
91 114 190 223 172 12 142 314 200 154 144 150 144 49 280 66 91 82 72 79 79 90 61 88 132 123 128 101 86 352 204 202 240 232 234 236 238 257 253 260 271 273 277 283
85 126 288 267 337 76 100 242 166 171 150 158 139 149 159 161 112 103 94 95 78 53 37 331 104 131 138 133 81 146 161 179 223 250 240 239 255 245 255 262 263 271 273 280
71 86 274 359 60 158 217 211 168 159 158 141 138 128 144 157 130 131 149 146 132 95 79 115 117 119 154 169 169 181 180 191 216 225 238 247 249 253 248 249 249 250 249 255
170 216 274 334 273 228 154 156 164 174 166 144 133 149 157 155 139 135 139 156 156 134 120 118 111 87 107 166 166 162 168 187 183 197 195 236 254 235 174 162 180 197 210 220
68 261 242 232 214 196 186 190 195 208 198 162 152 155 155 152 151 153 153 157 169 164 154 157 142 116 94 119 125 145 147 144 132 146 98 130 124 121 126 136 142 147 141 128
269 273 278 255 228 210 227 251 223 205 193 171 156 156 162 160 153 160 164 162 159 163 174 160 159 151 143 133 132 139 139 145 154 161 163 189 192 196 166 154 142 145 138 129
217 216 185 208 222 212 207 232 211 189 180 172 159 159 175 170 160 158 150 147 147 145 151 163 152 149 142 133 116 113 119 119 124 129 145 168 174 184 171 167 178 176 168 152
213 218 191 162 165 180 205 202 194 199 185 174 164 155 150 168 163 155 149 145 137 138 138 142 143 136 134 132 125 117 117 113 112 133 144 155 155 143 141 117 104 86 87 100
206 191 194 218 199 187 199 212 214 196 192 176 170 158 154 163 169 167 160 152 148 150 153 153 149 146 143 136 123 122 130 127 126 119 108 119 151 157 161 166 173 190 166 108
189 173 172 209 191 184 195 196 192 179 173 177 172 170 160 159 164 179 184 172 171 173 177 179 177 165 156 146 144 128 137 132 130 128 114 111 112 112 103 107 106 104 106 115
185 175 165 170 173 177 182 192 176 175 178 180 182 179 164 153 168 188 201 198 186 174 182 186 195 190 175 158 58 264 234 195 191 172 169 171 180 173 127 147 153 145 154 139
183 195 195 203 195 175 181 190 186 181 185 191 191 186 192 192 197 200 200 205 197 193 192 191 197 210 210 219 275 302 262 245 233 222 255 217 204 195 210 332 214 143 150 140
205 208 210 218 212 199 188 179 176 188 200 204 190 195 202 219 218 218 215 208 208 214 223 220 220 227 234 240 246 272 261 239 236 241 238 224 236 246 247 258 256 202 180 208
202 210 217 217 208 201 198 194 194 199 188 198 203 209 213 216 211 207 217 222 228 242 253 252 253 252 257 255 254 266 256 241 230 235 228 229 235 234 237 216 215 197 223 248
200 202 207 207 209 206 202 203 215 218 208 203 205 207 210 215 219 229 241 255 258 267 256 245 252 259 257 247 252 258 252 244 240 238 234 236 247 255 243 232 237 228 226 241
199 203 209 220 217 208 208 220 213 204 199 195 203 212 220 224 210 205 222 245 249 240 239 253 272 272 258 260 257 248 251 245 240 241 242 243 242 248 252 234 241 238 250 254
207 211 210 209 203 197 196 199 190 188 189 192 198 203 204 201 205 221 244 260 244 255 258 255 260 261 267 276 276 258 251 252 248 246 246 241 239 253 249 227 256 263 263 258
208 202 193 192 190 186 182 183 188 195 200 197 192 192 196 210 231 250 267 261 254 254 265 252 245 241 255 284 287 276 259 254 249 239 239 240 248 246 254 258 249 238 232 263
194 196 197 196 191 186 187 192 199 203 201 193 190 183 227 267 257 258 267 262 253 260 253 237 239 245 262 292 298 306 286 225 224 237 245 259 249 242 240 252 256 264 267 271
195 198 203 206 203 203 203 201 200 195 187 176 195 245 221 200 227 165 177 154 182 211 207 235 290 309 302 291 283 266 252 252 242 243 249 267 267 253 250 256 262 264 258 259
209 212 215 217 218 215 213 209 203 189 182 190 241 209 193 184 151 138 168 161 179 277 260 249 265 287 287 283 270 262 264 264 262 262 270 268 265 261 259 261 268 267 264 261
201 203 207 218 222 222 222 217 203 196 197 225 206 189 203 195 199 209 211 231 229 212 230 168 136 86 54 54 39 339 280 268 267 267 271 270 268 267 267 270 270 272 271 263